OBJECT K, 61744

Orbit data source: Space-Track

You're viewing an Uncataloged Satellite

Recently launched and/or uncataloged satellites may have evolving metadata. Metadata may include but not limited to: Owner, Maufacturer, Bus, Motor, and Mission.

OBJECT K, 61744 is a satellite in SSO that was launched on Mon, 04 Nov 2024 UTC via a SOYUZ-2-1B launch vehicle from the Vostochny Cosmodrome (VOSTO). Unknown objects in Earth's orbit typically refer to objects detected orbiting the Earth but have not yet been identified or cataloged. These objects could be anything from previously untracked satellites, spent rocket stages, debris from satellite collisions, or even natural meteoroids temporarily captured by Earth's gravity.

Loading next visibility...
Identifier
61744, 2024-199K
Orbit
SSO
Country
Flag of TBDTBD
Related business
None
Manufacturer
Unknown
Mission
Operational Commercial Technology
Bus & Motor
Unknown
Mass
Unknown
Launch date (UTC)
2024-11-04 (2 years ago)
Launch vehicle
SOYUZ-2-1B
Launch site
Vostochny Cosmodrome (VOSTO)
Object type
Unknown
Shape & HBR
Box, 0.1 m
Radar Cross Section
0.135 m², Medium (>0.1 m² and < 1m²)

Expand to show TLE details & history
Last TLE update: 4 hours ago

TLE from 4 hours ago
0 OBJECT K
1 61744U 24199K   26128.16975838  .00024220  00000-0  43537-3 0  9998
2 61744  97.3034   2.8355 0009855  69.7732 290.4578 15.49802084128168
Epoch: 2026-05-08T04:04Z
TLE epoch observation values (Epoch: 2026-05-08T04:04:27.124Z)
Latitude
-0.00003°
Longitude
75.71709°
Altitude
418.103 km
Speed
7.662 km/s
True Right ascension
00h 11m 20s
True Declination
0° 00' 00"
Sunlit
Object was in daylight at epoch
Visualization orbit readout
Latitude
Unknown
Longitude
Unknown
Altitude
Unknown
Speed
Unknown
Apparent Right ascension
Unknown
Apparent Declination
Unknown
Sunlit
N/A
Visualization observer readout
Local Sidereal Time
16:38:24
Azimuth
Unknown
Elevation
Unknown
Doppler factor
Unknown
Orbital elements
Apogee altitude
420.92 km
Perigee altitude
407.532 km
Semi-major axis
6,792.363 km
Eccentricity
0.00099
Inclination
97.3034°
RAAN
2.8355°
Arg. of periapsis
69.7732°
True anomaly
290.35195°
Mean anomaly
290.4578°
Eccentric anomaly
290.40488°
Mean motion
3.87714 °/min
Orbital period
92.85 mins
BSTAR
0.00043537
Loading maneuver chart data...
Computing Atmospheric mass density...
Loading historical data...
Loading historical data...
Loading historical data...
Loading historical data...
Loading historical data...
Loading historical data...
Loading historical data...

Documentation

Showing up to 5 results
|